Location: Newark
(43.5831°N, 21.3381°E)
Time: 19:15:55
(UTC+00:00)

Envisat - Pass Details

Date: 15 December 2019
Orbit: 764 x 766 km, 98.1° (Epoch: 28 January)

Event Time Altitude Azimuth Distance (km) Brightness Sun altitude
Rises 04:53:48 0° 19° (NNE) 3,243 6.2 -11.6°
Reaches altitude 10° 04:56:14 10° 26° (NNE) 2,312 5.6 -11.2°
Maximum altitude 05:01:05 44° 98° (E) 1,059 4.3 -10.4°
Drops below altitude 10° 05:05:54 10° 170° (S) 2,294 5.9 -9.6°
Sets 05:08:18 0° 177° (S) 3,216 6.6 -9.2°
